Location: Acton
(51.4942°N, 0.2232°W)
Time: 02:17:56
(UTC+00:00)

Cosmos 1674 - Pass Details

Date: 18 September 2020
Orbit: 494 x 518 km, 82.5° (Epoch: 30 October)

Event Time Altitude Azimuth Distance (km) Brightness Sun altitude
Rises 19:01:43 0° 359° (N) 2,656 6.5 -9.2°
Reaches altitude 10° 19:04:14 10° 15° (NNE) 1,764 5.4 -9.5°
Maximum altitude 19:07:19 22° 68° (ENE) 1,168 4.0 -10.0°
Enters shadow 19:09:26 15° 110° (ESE) 1,474 4.3 -10.3°
